Year,Month,Day,Hour,Minute,Value (Times are PST for temperature in C)
2018,04,24,00,00,10.80
2018,04,24,00,01,10.80
2018,04,24,00,02,10.80
2018,04,24,00,03,10.80
2018,04,24,00,04,10.80
2018,04,24,00,05,10.80
2018,04,24,00,06,10.80
2018,04,24,00,07,10.80
2018,04,24,00,08,10.80
2018,04,24,00,09,10.80
2018,04,24,00,10,10.80
2018,04,24,00,11,10.80
2018,04,24,00,12,10.80
2018,04,24,00,13,10.80
2018,04,24,00,14,10.80
2018,04,24,00,15,10.80
2018,04,24,00,16,10.80
2018,04,24,00,17,10.80
2018,04,24,00,18,10.70
2018,04,24,00,19,10.70
2018,04,24,00,20,10.70
2018,04,24,00,21,10.70
2018,04,24,00,22,10.70
2018,04,24,00,23,10.70
2018,04,24,00,24,10.70
2018,04,24,00,25,10.60
2018,04,24,00,26,10.60
2018,04,24,00,27,10.60
2018,04,24,00,28,10.60
2018,04,24,00,29,10.60
2018,04,24,00,30,10.60
2018,04,24,00,31,10.60
2018,04,24,00,32,10.60
2018,04,24,00,33,10.60
2018,04,24,00,34,10.60
2018,04,24,00,35,10.60
2018,04,24,00,36,10.50
2018,04,24,00,37,10.40
2018,04,24,00,38,10.30
2018,04,24,00,39,10.10
2018,04,24,00,40,9.90
2018,04,24,00,41,9.70
2018,04,24,00,42,9.60
2018,04,24,00,43,9.50
2018,04,24,00,44,9.40
2018,04,24,00,45,9.30
2018,04,24,00,46,9.20
2018,04,24,00,47,9.10
2018,04,24,00,48,9.00
2018,04,24,00,49,9.00
2018,04,24,00,50,9.00
2018,04,24,00,51,9.00
2018,04,24,00,52,9.00
2018,04,24,00,53,8.90
2018,04,24,00,54,8.90
2018,04,24,00,55,8.90
2018,04,24,00,56,8.90
2018,04,24,00,57,8.90
2018,04,24,00,58,8.90
2018,04,24,00,59,8.90
2018,04,24,01,00,8.90
2018,04,24,01,01,9.00
2018,04,24,01,02,9.10
2018,04,24,01,03,9.20
2018,04,24,01,04,9.30
2018,04,24,01,05,9.30
2018,04,24,01,06,9.40
2018,04,24,01,07,9.50
2018,04,24,01,08,9.60
2018,04,24,01,09,9.60
2018,04,24,01,10,9.70
2018,04,24,01,11,9.70
2018,04,24,01,12,9.80
2018,04,24,01,13,9.90
2018,04,24,01,14,9.90
2018,04,24,01,15,10.00
2018,04,24,01,16,10.10
2018,04,24,01,17,10.10
2018,04,24,01,18,10.10
2018,04,24,01,19,10.10
2018,04,24,01,20,10.20
2018,04,24,01,21,10.20
2018,04,24,01,22,10.20
2018,04,24,01,23,10.20
2018,04,24,01,24,10.30
2018,04,24,01,25,10.30
2018,04,24,01,26,10.30
2018,04,24,01,27,10.40
2018,04,24,01,28,10.40
2018,04,24,01,29,10.40
2018,04,24,01,30,10.40
2018,04,24,01,31,10.40
2018,04,24,01,32,10.40
2018,04,24,01,33,10.40
2018,04,24,01,34,10.40
2018,04,24,01,35,10.40
2018,04,24,01,36,10.40
2018,04,24,01,37,10.40
2018,04,24,01,38,10.40
2018,04,24,01,39,10.40
2018,04,24,01,40,10.40
2018,04,24,01,41,10.40
2018,04,24,01,42,10.40
2018,04,24,01,43,10.40
2018,04,24,01,44,10.40
2018,04,24,01,45,10.40
2018,04,24,01,46,10.40
2018,04,24,01,47,10.40
2018,04,24,01,48,10.40
2018,04,24,01,49,10.40
2018,04,24,01,50,10.40
2018,04,24,01,51,10.40
2018,04,24,01,52,10.40
2018,04,24,01,53,10.40
2018,04,24,01,54,10.40
2018,04,24,01,55,10.40
2018,04,24,01,56,10.40
2018,04,24,01,57,10.40
2018,04,24,01,58,10.40
2018,04,24,01,59,10.30
2018,04,24,02,00,10.30
2018,04,24,02,01,10.30
2018,04,24,02,02,10.30
2018,04,24,02,03,10.30
2018,04,24,02,04,10.30
2018,04,24,02,05,10.20
2018,04,24,02,06,10.20
2018,04,24,02,07,10.20
2018,04,24,02,08,10.20
2018,04,24,02,09,10.20
2018,04,24,02,10,10.20
2018,04,24,02,11,10.10
2018,04,24,02,12,10.10
2018,04,24,02,13,10.20
2018,04,24,02,14,10.10
2018,04,24,02,15,10.10
2018,04,24,02,16,10.10
2018,04,24,02,17,10.10
2018,04,24,02,18,10.10
2018,04,24,02,19,10.10
2018,04,24,02,20,10.10
2018,04,24,02,21,10.10
2018,04,24,02,22,10.10
2018,04,24,02,23,10.10
2018,04,24,02,24,10.10
2018,04,24,02,25,10.10
2018,04,24,02,26,10.10
2018,04,24,02,27,10.10
2018,04,24,02,28,10.10
2018,04,24,02,29,10.10
2018,04,24,02,30,10.10
2018,04,24,02,31,10.10
2018,04,24,02,32,10.10
2018,04,24,02,33,10.10
2018,04,24,02,34,10.10
2018,04,24,02,35,10.10
2018,04,24,02,36,10.10
2018,04,24,02,37,10.10
2018,04,24,02,38,10.10
2018,04,24,02,39,10.10
2018,04,24,02,40,10.10
2018,04,24,02,41,10.10
2018,04,24,02,42,10.10
2018,04,24,02,43,10.10
2018,04,24,02,44,10.10
2018,04,24,02,45,10.10
2018,04,24,02,46,10.10
2018,04,24,02,47,10.10
2018,04,24,02,48,10.10
2018,04,24,02,49,10.10
2018,04,24,02,50,10.10
2018,04,24,02,51,10.10
2018,04,24,02,52,10.10
2018,04,24,02,53,10.10
2018,04,24,02,54,10.20
2018,04,24,02,55,10.20
2018,04,24,02,56,10.20
2018,04,24,02,57,10.20
2018,04,24,02,58,10.10
2018,04,24,02,59,10.10
2018,04,24,03,00,10.10
2018,04,24,03,01,10.10
2018,04,24,03,02,10.10
2018,04,24,03,03,10.10
2018,04,24,03,04,10.10
2018,04,24,03,05,10.10
2018,04,24,03,06,10.10
2018,04,24,03,07,10.00
2018,04,24,03,08,9.90
2018,04,24,03,09,9.90
2018,04,24,03,10,9.90
2018,04,24,03,11,9.90
2018,04,24,03,12,9.90
2018,04,24,03,13,9.90
2018,04,24,03,14,9.90
2018,04,24,03,15,9.90
2018,04,24,03,16,9.90
2018,04,24,03,17,9.90
2018,04,24,03,18,9.90
2018,04,24,03,19,9.90
2018,04,24,03,20,9.90
2018,04,24,03,21,9.90
2018,04,24,03,22,9.80
2018,04,24,03,23,9.80
2018,04,24,03,24,9.80
2018,04,24,03,25,9.70
2018,04,24,03,26,9.70
2018,04,24,03,27,9.70
2018,04,24,03,28,9.70
2018,04,24,03,29,9.70
2018,04,24,03,30,9.70
2018,04,24,03,31,9.80
2018,04,24,03,32,9.80
2018,04,24,03,33,9.80
2018,04,24,03,34,9.80
2018,04,24,03,35,9.80
2018,04,24,03,36,9.80
2018,04,24,03,37,9.80
2018,04,24,03,38,9.70
2018,04,24,03,39,9.70
2018,04,24,03,40,9.70
2018,04,24,03,41,9.70
2018,04,24,03,42,9.70
2018,04,24,03,43,9.70
2018,04,24,03,44,9.70
2018,04,24,03,45,9.70
2018,04,24,03,46,9.70
2018,04,24,03,47,9.70
2018,04,24,03,48,9.70
2018,04,24,03,49,9.70
2018,04,24,03,50,9.70
2018,04,24,03,51,9.70
2018,04,24,03,52,9.70
2018,04,24,03,53,9.70
2018,04,24,03,54,9.60
2018,04,24,03,55,9.60
2018,04,24,03,56,9.60
2018,04,24,03,57,9.60
2018,04,24,03,58,9.60
2018,04,24,03,59,9.60
2018,04,24,04,00,9.60
2018,04,24,04,01,9.60
2018,04,24,04,02,9.60
2018,04,24,04,03,9.60
2018,04,24,04,04,9.60
2018,04,24,04,05,9.50
2018,04,24,04,06,9.50
2018,04,24,04,07,9.40
2018,04,24,04,08,9.40
2018,04,24,04,09,9.30
2018,04,24,04,10,9.30
2018,04,24,04,11,9.20
2018,04,24,04,12,9.20
2018,04,24,04,13,9.10
2018,04,24,04,14,9.10
2018,04,24,04,15,9.00
2018,04,24,04,16,9.00
2018,04,24,04,17,9.00
2018,04,24,04,18,9.00
2018,04,24,04,19,8.90
2018,04,24,04,20,8.90
2018,04,24,04,21,8.80
2018,04,24,04,22,8.80
2018,04,24,04,23,8.70
2018,04,24,04,24,8.70
2018,04,24,04,25,8.70
2018,04,24,04,26,8.60
2018,04,24,04,27,8.60
2018,04,24,04,28,8.60
2018,04,24,04,29,8.60
2018,04,24,04,30,8.60
2018,04,24,04,31,8.60
2018,04,24,04,32,8.60
2018,04,24,04,33,8.60
2018,04,24,04,34,8.60
2018,04,24,04,35,8.60
2018,04,24,04,36,8.60
2018,04,24,04,37,8.60
2018,04,24,04,38,8.60
2018,04,24,04,39,8.60
2018,04,24,04,40,8.60
2018,04,24,04,41,8.60
2018,04,24,04,42,8.60
2018,04,24,04,43,8.60
2018,04,24,04,44,8.60
2018,04,24,04,45,8.60
2018,04,24,04,46,8.60
2018,04,24,04,47,8.60
2018,04,24,04,48,8.70
2018,04,24,04,49,8.70
2018,04,24,04,50,8.70
2018,04,24,04,51,8.70
2018,04,24,04,52,8.70
2018,04,24,04,53,8.70
2018,04,24,04,54,8.60
2018,04,24,04,55,8.60
2018,04,24,04,56,8.60
2018,04,24,04,57,8.60
2018,04,24,04,58,8.60
2018,04,24,04,59,8.60
2018,04,24,05,00,8.60
2018,04,24,05,01,8.60
2018,04,24,05,02,8.60
2018,04,24,05,03,8.60
2018,04,24,05,04,8.50
2018,04,24,05,05,8.50
2018,04,24,05,06,8.50
2018,04,24,05,07,8.50
2018,04,24,05,08,8.50
2018,04,24,05,09,8.50
2018,04,24,05,10,8.50
2018,04,24,05,11,8.50
2018,04,24,05,12,8.40
2018,04,24,05,13,8.40
2018,04,24,05,14,8.30
2018,04,24,05,15,8.30
2018,04,24,05,16,8.20
2018,04,24,05,17,8.20
2018,04,24,05,18,8.20
2018,04,24,05,19,8.20
2018,04,24,05,20,8.20
2018,04,24,05,21,8.20
2018,04,24,05,22,8.20
2018,04,24,05,23,8.20
2018,04,24,05,24,8.10
2018,04,24,05,25,8.10
2018,04,24,05,26,8.10
2018,04,24,05,27,8.00
2018,04,24,05,28,8.00
2018,04,24,05,29,8.00
2018,04,24,05,30,8.00
2018,04,24,05,31,8.00
2018,04,24,05,32,8.00
2018,04,24,05,33,8.10
2018,04,24,05,34,8.10
2018,04,24,05,35,8.10
2018,04,24,05,36,8.20
2018,04,24,05,37,8.20
2018,04,24,05,38,8.20
2018,04,24,05,39,8.20
2018,04,24,05,40,8.20
2018,04,24,05,41,8.20
2018,04,24,05,42,8.30
2018,04,24,05,43,8.30
2018,04,24,05,44,8.30
2018,04,24,05,45,8.40
2018,04,24,05,46,8.50
2018,04,24,05,47,8.50
2018,04,24,05,48,8.60
2018,04,24,05,49,8.60
2018,04,24,05,50,8.70
2018,04,24,05,51,8.60
2018,04,24,05,52,8.60
2018,04,24,05,53,8.60
2018,04,24,05,54,8.70
2018,04,24,05,55,8.60
2018,04,24,05,56,8.60
2018,04,24,05,57,8.60
2018,04,24,05,58,8.60
2018,04,24,05,59,8.60
2018,04,24,06,00,8.60
2018,04,24,06,01,8.60
2018,04,24,06,02,8.60
2018,04,24,06,03,8.60
2018,04,24,06,04,8.60
2018,04,24,06,05,8.60
2018,04,24,06,06,8.50
2018,04,24,06,07,8.50
2018,04,24,06,08,8.50
2018,04,24,06,09,8.40
2018,04,24,06,10,8.40
2018,04,24,06,11,8.40
2018,04,24,06,12,8.40
2018,04,24,06,13,8.40
2018,04,24,06,14,8.40
2018,04,24,06,15,8.40
2018,04,24,06,16,8.50
2018,04,24,06,17,8.50
2018,04,24,06,18,8.50
2018,04,24,06,19,8.50
2018,04,24,06,20,8.50
2018,04,24,06,21,8.50
2018,04,24,06,22,8.40
2018,04,24,06,23,8.50
2018,04,24,06,24,8.50
2018,04,24,06,25,8.50
2018,04,24,06,26,8.50
2018,04,24,06,27,8.50
2018,04,24,06,28,8.50
2018,04,24,06,29,8.50
2018,04,24,06,30,8.50
2018,04,24,06,31,8.50
2018,04,24,06,32,8.50
2018,04,24,06,33,8.50
2018,04,24,06,34,8.50
2018,04,24,06,35,8.40
2018,04,24,06,36,8.40
2018,04,24,06,37,8.40
2018,04,24,06,38,8.40
2018,04,24,06,39,8.40
2018,04,24,06,40,8.40
2018,04,24,06,41,8.40
2018,04,24,06,42,8.40
2018,04,24,06,43,8.40
2018,04,24,06,44,8.40
2018,04,24,06,45,8.40
2018,04,24,06,46,8.40
2018,04,24,06,47,8.30
2018,04,24,06,48,8.30
2018,04,24,06,49,8.30
2018,04,24,06,50,8.30
2018,04,24,06,51,8.30
2018,04,24,06,52,8.30
2018,04,24,06,53,8.30
2018,04,24,06,54,8.40
2018,04,24,06,55,8.40
2018,04,24,06,56,8.40
2018,04,24,06,57,8.40
2018,04,24,06,58,8.40
2018,04,24,06,59,8.40
2018,04,24,07,00,8.40
2018,04,24,07,01,8.40
2018,04,24,07,02,8.50
2018,04,24,07,03,8.50
2018,04,24,07,04,8.50
2018,04,24,07,05,8.50
2018,04,24,07,06,8.60
2018,04,24,07,07,8.60
2018,04,24,07,08,8.60
2018,04,24,07,09,8.60
2018,04,24,07,10,8.60
2018,04,24,07,11,8.60
2018,04,24,07,12,8.60
2018,04,24,07,13,8.60
2018,04,24,07,14,8.60
2018,04,24,07,15,8.60
2018,04,24,07,16,8.60
2018,04,24,07,17,8.50
2018,04,24,07,18,8.60
2018,04,24,07,19,8.60
2018,04,24,07,20,8.60
2018,04,24,07,21,8.60
2018,04,24,07,22,8.60
2018,04,24,07,23,8.60
2018,04,24,07,24,8.70
2018,04,24,07,25,8.70
2018,04,24,07,26,8.70
2018,04,24,07,27,8.60
2018,04,24,07,28,8.70
2018,04,24,07,29,8.70
2018,04,24,07,30,8.70
2018,04,24,07,31,8.70
2018,04,24,07,32,8.70
2018,04,24,07,33,8.70
2018,04,24,07,34,8.70
2018,04,24,07,35,8.70
2018,04,24,07,36,8.80
2018,04,24,07,37,8.80
2018,04,24,07,38,8.80
2018,04,24,07,39,8.80
2018,04,24,07,40,8.90
2018,04,24,07,41,8.90
2018,04,24,07,42,8.90
2018,04,24,07,43,9.00
2018,04,24,07,44,9.00
2018,04,24,07,45,9.10
2018,04,24,07,46,9.10
2018,04,24,07,47,9.20
2018,04,24,07,48,9.20
2018,04,24,07,49,9.20
2018,04,24,07,50,9.30
2018,04,24,07,51,9.30
2018,04,24,07,52,9.40
2018,04,24,07,53,9.40
2018,04,24,07,54,9.40
2018,04,24,07,55,9.50
2018,04,24,07,56,9.50
2018,04,24,07,57,9.60
2018,04,24,07,58,9.60
2018,04,24,07,59,9.70
2018,04,24,08,00,9.80
2018,04,24,08,01,9.80
2018,04,24,08,02,9.80
2018,04,24,08,03,9.90
2018,04,24,08,04,9.90
2018,04,24,08,05,9.90
2018,04,24,08,06,9.90
2018,04,24,08,07,9.90
2018,04,24,08,08,9.90
2018,04,24,08,09,9.90
2018,04,24,08,10,9.90
2018,04,24,08,11,10.00
2018,04,24,08,12,10.00
2018,04,24,08,13,10.10
2018,04,24,08,14,10.10
2018,04,24,08,15,10.10
2018,04,24,08,16,10.10
2018,04,24,08,17,10.10
2018,04,24,08,18,10.20
2018,04,24,08,19,10.20
2018,04,24,08,20,10.30
2018,04,24,08,21,10.30
2018,04,24,08,22,10.40
2018,04,24,08,23,10.40
2018,04,24,08,24,10.40
2018,04,24,08,25,10.40
2018,04,24,08,26,10.50
2018,04,24,08,27,10.60
2018,04,24,08,28,10.60
2018,04,24,08,29,10.60
2018,04,24,08,30,10.70
2018,04,24,08,31,10.80
2018,04,24,08,32,10.80
2018,04,24,08,33,10.90
2018,04,24,08,34,10.90
2018,04,24,08,35,10.90
2018,04,24,08,36,10.90
2018,04,24,08,37,11.00
2018,04,24,08,38,11.10
2018,04,24,08,39,11.10
2018,04,24,08,40,11.10
2018,04,24,08,41,11.10
2018,04,24,08,42,11.10
2018,04,24,08,43,11.20
2018,04,24,08,44,11.20
2018,04,24,08,45,11.30
2018,04,24,08,46,11.40
2018,04,24,08,47,11.50
2018,04,24,08,48,11.60
2018,04,24,08,49,11.60
2018,04,24,08,50,11.70
2018,04,24,08,51,11.80
2018,04,24,08,52,11.80
2018,04,24,08,53,11.90
2018,04,24,08,54,11.90
2018,04,24,08,55,12.00
2018,04,24,08,56,12.00
2018,04,24,08,57,12.00
2018,04,24,08,58,12.10
2018,04,24,08,59,12.20
2018,04,24,09,00,12.20
2018,04,24,09,01,12.30
2018,04,24,09,02,12.40
2018,04,24,09,03,12.50
2018,04,24,09,04,12.50
2018,04,24,09,05,12.60
2018,04,24,09,06,12.70
2018,04,24,09,07,12.70
2018,04,24,09,08,12.80
2018,04,24,09,09,12.80
2018,04,24,09,10,12.90
2018,04,24,09,11,12.90
2018,04,24,09,12,13.00
2018,04,24,09,13,13.00
2018,04,24,09,14,13.00
2018,04,24,09,15,13.10
2018,04,24,09,16,13.10
2018,04,24,09,17,13.20
2018,04,24,09,18,13.20
2018,04,24,09,19,13.20
2018,04,24,09,20,13.20
2018,04,24,09,21,13.30
2018,04,24,09,22,13.30
2018,04,24,09,23,13.30
2018,04,24,09,24,13.30
2018,04,24,09,25,13.40
2018,04,24,09,26,13.40
2018,04,24,09,27,13.40
2018,04,24,09,28,13.50
2018,04,24,09,29,13.50
2018,04,24,09,30,13.60
2018,04,24,09,31,13.60
2018,04,24,09,32,13.60
2018,04,24,09,33,13.70
2018,04,24,09,34,13.70
2018,04,24,09,35,13.80
2018,04,24,09,36,13.80
2018,04,24,09,37,13.90
2018,04,24,09,38,14.00
2018,04,24,09,39,14.10
2018,04,24,09,40,14.10
2018,04,24,09,41,14.20
2018,04,24,09,42,14.20
2018,04,24,09,43,14.20
2018,04,24,09,44,14.30
2018,04,24,09,45,14.40
2018,04,24,09,46,14.40
2018,04,24,09,47,14.40
2018,04,24,09,48,14.40
2018,04,24,09,49,14.50
2018,04,24,09,50,14.50
2018,04,24,09,51,14.60
2018,04,24,09,52,14.60
2018,04,24,09,53,14.60
2018,04,24,09,54,14.60
2018,04,24,09,55,14.60
2018,04,24,09,56,14.60
2018,04,24,09,57,14.50
2018,04,24,09,58,14.50
2018,04,24,09,59,14.40
2018,04,24,10,00,14.40
2018,04,24,10,01,14.50
2018,04,24,10,02,14.50
2018,04,24,10,03,14.60
2018,04,24,10,04,14.60
2018,04,24,10,05,14.70
2018,04,24,10,06,14.70
2018,04,24,10,07,14.70
2018,04,24,10,08,14.80
2018,04,24,10,09,14.80
2018,04,24,10,10,14.80
2018,04,24,10,11,14.80
2018,04,24,10,12,14.90
2018,04,24,10,13,14.90
2018,04,24,10,14,14.90
2018,04,24,10,15,15.00
2018,04,24,10,16,15.10
2018,04,24,10,17,15.10
2018,04,24,10,18,15.20
2018,04,24,10,19,15.30
2018,04,24,10,20,15.30
2018,04,24,10,21,15.30
2018,04,24,10,22,15.40
2018,04,24,10,23,15.40
2018,04,24,10,24,15.50
2018,04,24,10,25,15.50
2018,04,24,10,26,15.60
2018,04,24,10,27,15.60
2018,04,24,10,28,15.60
2018,04,24,10,29,15.60
2018,04,24,10,30,15.60
2018,04,24,10,31,15.60
2018,04,24,10,32,15.50
2018,04,24,10,33,15.50
2018,04,24,10,34,15.50
2018,04,24,10,35,15.50
2018,04,24,10,36,15.50
2018,04,24,10,37,15.40
2018,04,24,10,38,15.50
2018,04,24,10,39,15.50
2018,04,24,10,40,15.50
2018,04,24,10,41,15.50
2018,04,24,10,42,15.50
2018,04,24,10,43,15.60
2018,04,24,10,44,15.60
2018,04,24,10,45,15.70
2018,04,24,10,46,15.80
2018,04,24,10,47,15.80
2018,04,24,10,48,15.90
2018,04,24,10,49,16.00
2018,04,24,10,50,16.10
2018,04,24,10,51,16.20
2018,04,24,10,52,16.20
2018,04,24,10,53,16.30
2018,04,24,10,54,16.30
2018,04,24,10,55,16.40
2018,04,24,10,56,16.40
2018,04,24,10,57,16.40
2018,04,24,10,58,16.40
2018,04,24,10,59,16.40
2018,04,24,11,00,16.40
2018,04,24,11,01,16.40
2018,04,24,11,02,16.40
2018,04,24,11,03,16.50
2018,04,24,11,04,16.50
2018,04,24,11,05,16.50
2018,04,24,11,06,16.50
2018,04,24,11,07,16.50
2018,04,24,11,08,16.50
2018,04,24,11,09,16.40
2018,04,24,11,10,16.40
2018,04,24,11,11,16.50
2018,04,24,11,12,16.60
2018,04,24,11,13,16.60
2018,04,24,11,14,16.60
2018,04,24,11,15,16.60
2018,04,24,11,16,16.70
2018,04,24,11,17,16.70
2018,04,24,11,18,16.70
2018,04,24,11,19,16.70
2018,04,24,11,20,16.70
2018,04,24,11,21,16.70
2018,04,24,11,22,16.70
2018,04,24,11,23,16.70
2018,04,24,11,24,16.70
2018,04,24,11,25,16.70
2018,04,24,11,26,16.70
2018,04,24,11,27,16.80
2018,04,24,11,28,16.90
2018,04,24,11,29,17.00
2018,04,24,11,30,17.10
2018,04,24,11,31,17.20
2018,04,24,11,32,17.30
2018,04,24,11,33,17.30
2018,04,24,11,34,17.30
2018,04,24,11,35,17.30
2018,04,24,11,36,17.30
2018,04,24,11,37,17.30
2018,04,24,11,38,17.30
2018,04,24,11,39,17.40
2018,04,24,11,40,17.30
2018,04,24,11,41,17.30
2018,04,24,11,42,17.20
2018,04,24,11,43,17.10
2018,04,24,11,44,17.10
2018,04,24,11,45,17.10
2018,04,24,11,46,17.10
2018,04,24,11,47,17.00
2018,04,24,11,48,17.00
2018,04,24,11,49,17.00
2018,04,24,11,50,17.10
2018,04,24,11,51,17.10
2018,04,24,11,52,17.20
2018,04,24,11,53,17.30
2018,04,24,11,54,17.30
2018,04,24,11,55,17.40
2018,04,24,11,56,17.30
2018,04,24,11,57,17.30
2018,04,24,11,58,17.30
2018,04,24,11,59,17.30
2018,04,24,12,00,17.30
2018,04,24,12,01,17.40
2018,04,24,12,02,17.50
2018,04,24,12,03,17.50
2018,04,24,12,04,17.50
2018,04,24,12,05,17.60
2018,04,24,12,06,17.60
2018,04,24,12,07,17.70
2018,04,24,12,08,17.70
2018,04,24,12,09,17.80
2018,04,24,12,10,17.70
2018,04,24,12,11,17.70
2018,04,24,12,12,17.70
2018,04,24,12,13,17.70
2018,04,24,12,14,17.70
2018,04,24,12,15,17.70
2018,04,24,12,16,17.70
2018,04,24,12,17,17.70
2018,04,24,12,18,17.70
2018,04,24,12,19,17.70
2018,04,24,12,20,17.50
2018,04,24,12,21,17.50
2018,04,24,12,22,17.50
2018,04,24,12,23,17.60
2018,04,24,12,24,17.70
2018,04,24,12,25,17.80
2018,04,24,12,26,17.80
2018,04,24,12,27,17.90
2018,04,24,12,28,17.90
2018,04,24,12,29,17.90
2018,04,24,12,30,17.90
2018,04,24,12,31,17.90
2018,04,24,12,32,17.90
2018,04,24,12,33,17.90
2018,04,24,12,34,17.90
2018,04,24,12,35,17.90
2018,04,24,12,36,17.90
2018,04,24,12,37,17.90
2018,04,24,12,38,17.90
2018,04,24,12,39,17.90
2018,04,24,12,40,18.00
2018,04,24,12,41,18.10
2018,04,24,12,42,18.10
2018,04,24,12,43,18.10
2018,04,24,12,44,18.10
2018,04,24,12,45,18.10
2018,04,24,12,46,18.00
2018,04,24,12,47,17.90
2018,04,24,12,48,17.90
2018,04,24,12,49,17.90
2018,04,24,12,50,17.90
2018,04,24,12,51,17.90
2018,04,24,12,52,17.90
2018,04,24,12,53,17.90
2018,04,24,12,54,17.90
2018,04,24,12,55,17.90
2018,04,24,12,56,17.90
2018,04,24,12,57,18.00
2018,04,24,12,58,18.10
2018,04,24,12,59,18.20
2018,04,24,13,00,18.10
2018,04,24,13,01,18.10
2018,04,24,13,02,18.10
2018,04,24,13,03,17.90
2018,04,24,13,04,17.90
2018,04,24,13,05,17.90
2018,04,24,13,06,17.90
2018,04,24,13,07,17.90
2018,04,24,13,08,18.00
2018,04,24,13,09,18.10
2018,04,24,13,10,18.10
2018,04,24,13,11,18.20
2018,04,24,13,12,18.20
2018,04,24,13,13,18.30
2018,04,24,13,14,18.20
2018,04,24,13,15,18.30
2018,04,24,13,16,18.30
2018,04,24,13,17,18.30
2018,04,24,13,18,18.30
2018,04,24,13,19,18.40
2018,04,24,13,20,18.40
2018,04,24,13,21,18.50
2018,04,24,13,22,18.50
2018,04,24,13,23,18.50
2018,04,24,13,24,18.60
2018,04,24,13,25,18.70
2018,04,24,13,26,18.80
2018,04,24,13,27,18.90
2018,04,24,13,28,18.90
2018,04,24,13,29,18.90
2018,04,24,13,30,18.90
2018,04,24,13,31,18.90
2018,04,24,13,32,19.00
2018,04,24,13,33,19.10
2018,04,24,13,34,19.10
2018,04,24,13,35,19.10
2018,04,24,13,36,19.10
2018,04,24,13,37,19.10
2018,04,24,13,38,19.10
2018,04,24,13,39,19.10
2018,04,24,13,40,19.10
2018,04,24,13,41,19.20
2018,04,24,13,42,19.10
2018,04,24,13,43,19.10
2018,04,24,13,44,19.10
2018,04,24,13,45,19.10
2018,04,24,13,46,19.10
2018,04,24,13,47,19.20
2018,04,24,13,48,19.20
2018,04,24,13,49,19.20
2018,04,24,13,50,19.30
2018,04,24,13,51,19.20
2018,04,24,13,52,19.20
2018,04,24,13,53,19.30
2018,04,24,13,54,19.30
2018,04,24,13,55,19.10
2018,04,24,13,56,19.10
2018,04,24,13,57,19.10
2018,04,24,13,58,19.10
2018,04,24,13,59,19.10
2018,04,24,14,00,19.10
2018,04,24,14,01,19.10
2018,04,24,14,02,19.10
2018,04,24,14,03,19.20
2018,04,24,14,04,19.30
2018,04,24,14,05,19.30
2018,04,24,14,06,19.40
2018,04,24,14,07,19.50
2018,04,24,14,08,19.60
2018,04,24,14,09,19.60
2018,04,24,14,10,19.70
2018,04,24,14,11,19.80
2018,04,24,14,12,19.80
2018,04,24,14,13,19.90
2018,04,24,14,14,19.90
2018,04,24,14,15,20.00
2018,04,24,14,16,20.10
2018,04,24,14,17,20.10
2018,04,24,14,18,20.10
2018,04,24,14,19,20.10
2018,04,24,14,20,20.10
2018,04,24,14,21,20.10
2018,04,24,14,22,20.20
2018,04,24,14,23,20.20
2018,04,24,14,24,20.20
2018,04,24,14,25,20.20
2018,04,24,14,26,20.30
2018,04,24,14,27,20.30
2018,04,24,14,28,20.40
2018,04,24,14,29,20.40
2018,04,24,14,30,20.40
2018,04,24,14,31,20.30
2018,04,24,14,32,20.30
2018,04,24,14,33,20.30
2018,04,24,14,34,20.30
2018,04,24,14,35,20.30
2018,04,24,14,36,20.40
2018,04,24,14,37,20.40
2018,04,24,14,38,20.50
2018,04,24,14,39,20.50
2018,04,24,14,40,20.50
2018,04,24,14,41,20.50
2018,04,24,14,42,20.50
2018,04,24,14,43,20.50
2018,04,24,14,44,20.40
2018,04,24,14,45,20.40
2018,04,24,14,46,20.40
2018,04,24,14,47,20.30
2018,04,24,14,48,20.20
2018,04,24,14,49,20.10
2018,04,24,14,50,20.00
2018,04,24,14,51,19.90
2018,04,24,14,52,19.90
2018,04,24,14,53,19.90
2018,04,24,14,54,19.90
2018,04,24,14,55,19.90
2018,04,24,14,56,19.90
2018,04,24,14,57,20.00
2018,04,24,14,58,20.10
2018,04,24,14,59,20.10
2018,04,24,15,00,20.10
2018,04,24,15,01,20.10
2018,04,24,15,02,20.10
2018,04,24,15,03,20.10
2018,04,24,15,04,20.10
2018,04,24,15,05,20.10
2018,04,24,15,06,20.00
2018,04,24,15,07,19.90
2018,04,24,15,08,19.80
2018,04,24,15,09,19.80
2018,04,24,15,10,19.70
2018,04,24,15,11,19.70
2018,04,24,15,12,19.70
2018,04,24,15,13,19.70
2018,04,24,15,14,19.70
2018,04,24,15,15,19.70
2018,04,24,15,16,19.70
2018,04,24,15,17,19.80
2018,04,24,15,18,19.80
2018,04,24,15,19,19.80
2018,04,24,15,20,19.80
2018,04,24,15,21,19.80
2018,04,24,15,22,19.80
2018,04,24,15,23,19.80
2018,04,24,15,24,19.90
2018,04,24,15,25,19.90
2018,04,24,15,26,19.90
2018,04,24,15,27,19.90
2018,04,24,15,28,19.90
2018,04,24,15,29,19.90
2018,04,24,15,30,19.90
2018,04,24,15,31,19.80
2018,04,24,15,32,19.70
2018,04,24,15,33,19.60
2018,04,24,15,34,19.60
2018,04,24,15,35,19.60
2018,04,24,15,36,19.60
2018,04,24,15,37,19.60
2018,04,24,15,38,19.60
2018,04,24,15,39,19.60
2018,04,24,15,40,19.70
2018,04,24,15,41,19.70
2018,04,24,15,42,19.80
2018,04,24,15,43,19.80
2018,04,24,15,44,19.90
2018,04,24,15,45,19.90
2018,04,24,15,46,19.90
2018,04,24,15,47,19.90
2018,04,24,15,48,19.80
2018,04,24,15,49,19.80
2018,04,24,15,50,19.80
2018,04,24,15,51,19.80
2018,04,24,15,52,19.70
2018,04,24,15,53,19.70
2018,04,24,15,54,19.70
2018,04,24,15,55,19.60
2018,04,24,15,56,19.60
2018,04,24,15,57,19.50
2018,04,24,15,58,19.40
2018,04,24,15,59,19.40
2018,04,24,16,00,19.40
2018,04,24,16,01,19.40
2018,04,24,16,02,19.30
2018,04,24,16,03,19.30
2018,04,24,16,04,19.30
2018,04,24,16,05,19.30
2018,04,24,16,06,19.20
2018,04,24,16,07,19.20
2018,04,24,16,08,19.20
2018,04,24,16,09,19.10
2018,04,24,16,10,19.10
2018,04,24,16,11,19.10
2018,04,24,16,12,19.10
2018,04,24,16,13,19.10
2018,04,24,16,14,19.10
2018,04,24,16,15,19.10
2018,04,24,16,16,19.10
2018,04,24,16,17,19.10
2018,04,24,16,18,19.10
2018,04,24,16,19,19.10
2018,04,24,16,20,19.00
2018,04,24,16,21,19.10
2018,04,24,16,22,19.10
2018,04,24,16,23,19.10
2018,04,24,16,24,19.10
2018,04,24,16,25,19.10
2018,04,24,16,26,19.10
2018,04,24,16,27,19.10
2018,04,24,16,28,19.00
2018,04,24,16,29,18.90
2018,04,24,16,30,18.90
2018,04,24,16,31,18.90
2018,04,24,16,32,18.90
2018,04,24,16,33,18.90
2018,04,24,16,34,18.90
2018,04,24,16,35,18.90
2018,04,24,16,36,18.90
2018,04,24,16,37,18.80
2018,04,24,16,38,18.80
2018,04,24,16,39,18.80
2018,04,24,16,40,18.80
2018,04,24,16,41,18.80
2018,04,24,16,42,18.80
2018,04,24,16,43,18.80
2018,04,24,16,44,18.80
2018,04,24,16,45,18.80
2018,04,24,16,46,18.70
2018,04,24,16,47,18.70
2018,04,24,16,48,18.70
2018,04,24,16,49,18.70
2018,04,24,16,50,18.70
2018,04,24,16,51,18.70
2018,04,24,16,52,18.70
2018,04,24,16,53,18.70
2018,04,24,16,54,18.70
2018,04,24,16,55,18.60
2018,04,24,16,56,18.60
2018,04,24,16,57,18.60
2018,04,24,16,58,18.60
2018,04,24,16,59,18.60
2018,04,24,17,00,18.50
2018,04,24,17,01,18.50
2018,04,24,17,02,18.50
2018,04,24,17,03,18.50
2018,04,24,17,04,18.50
2018,04,24,17,05,18.50
2018,04,24,17,06,18.40
2018,04,24,17,07,18.40
2018,04,24,17,08,18.40
2018,04,24,17,09,18.40
2018,04,24,17,10,18.40
2018,04,24,17,11,18.40
2018,04,24,17,12,18.30
2018,04,24,17,13,18.30
2018,04,24,17,14,18.20
2018,04,24,17,15,18.20
2018,04,24,17,16,18.20
2018,04,24,17,17,18.20
2018,04,24,17,18,18.20
2018,04,24,17,19,18.10
2018,04,24,17,20,18.10
2018,04,24,17,21,18.10
2018,04,24,17,22,18.10
2018,04,24,17,23,18.20
2018,04,24,17,24,18.20
2018,04,24,17,25,18.20
2018,04,24,17,26,18.20
2018,04,24,17,27,18.20
2018,04,24,17,28,18.20
2018,04,24,17,29,18.20
2018,04,24,17,30,18.20
2018,04,24,17,31,18.20
2018,04,24,17,32,18.20
2018,04,24,17,33,18.20
2018,04,24,17,34,18.10